Location: Baili�vre
(50.0696°N, 4.2409°E)
Time: 22:37:21
(UTC+00:00)

Cosmos 1743 - Pass Details

Date: 08 August 2020
Orbit: 509 x 528 km, 82.5° (Epoch: 22 September)

Event Time Altitude Azimuth Distance (km) Brightness Sun altitude
Exits shadow 22:38:40 23° 73° (ENE) 1,159 4.4 -22.4°
Drops below altitude 10° 22:41:12 10° 34° (NE) 1,784 5.9 -22.5°
Sets 22:43:38 0° 21° (NNE) 2,681 7.1 -22.6°
